Regional Weather Roundup
Issued by NWS Newport/Morehead, NC

Current Version | Previous Version | Graphics & Text | Print | Product List | Glossary Off
Versions: 1 2 3 4 5 6 7 8 9 10 11 12 13 14 15 16 17 18 19 20 21 22 23 24 25 26 27 28 29 30 31 32 33 34 35 36 37 38 39 40 41 42 43 44 45 46 47 48 49 50

000
ASUS42 KMHX 170425
RWRMHX
WEATHER ROUNDUP FOR EASTERN NORTH CAROLINA
NATIONAL WEATHER SERVICE NEWPORT/MOREHEAD CITY NC
1100 PM EST MON JAN 16 2017

NOTE: "FAIR" INDICATES FEW OR NO CLOUDS BELOW 12,000 FEET
WITH NO SIGNIFICANT WEATHER AND/OR OBSTRUCTIONS TO VISIBILITY

NCZ015>017-031-032-045>047-102-103-170500-
NORTH COAST

CITY           SKY/WX    TMP DP  RH WIND       PRES   REMARKS
EDENTON        MOCLDY    41  39  91 CALM      30.34F
ELIZABETH CITY CLOUDY    40  37  89 CALM      30.34F
KITTY HAWK     NOT AVBL
MANTEO         CLOUDY    42  40  90 CALM      30.33F

$$

NCZ045>047-081-094-103-104-170500-
CENTRAL COAST

CITY           SKY/WX    TMP DP  RH WIND       PRES   REMARKS
FRISCO         CLOUDY    48  43  82 N6        30.32F

$$

NCZ095-097-098-100-101-170500-
SOUTHERN COAST

CITY           SKY/WX    TMP DP  RH WIND       PRES   REMARKS
BEAUFORT       CLOUDY    49  43  80 E5        30.33F
CEDAR ISLAND   NOT AVBL
JACKSONVILLE   CLOUDY    48  45  89 CALM      30.32F
PINEY ISLAND   CLOUDY   N/A N/A N/A NE5       30.32F
WILMINGTON     CLOUDY    52  47  83 CALM      30.33S


$$

NCZ011>013-027>030-043-044-078>080-089-090>093-098-170500-
COASTAL PLAIN

CITY           SKY/WX    TMP DP  RH WIND       PRES   REMARKS
AHOSKIE          N/A     44  39  83 CALM      30.34F
CLINTON        CLOUDY    51  47  86 CALM      30.34S
ELIZABETHTOWN  CLOUDY    50  47  87 CALM      30.32F
GOLDSBORO      CLOUDY    51  46  83 CALM      30.31F
GREENVILLE     CLOUDY    48  45  87 CALM      30.33F
HAVELOCK       MOCLDY    48  43  82 CALM      30.33F
KENANSVILLE    CLOUDY    50  45  81 CALM      30.33F
KINSTON        CLOUDY    51  44  78 CALM      30.33F
NEW BERN       PTCLDY    45  41  86 CALM      30.33F
RICHLANDS      CLOUDY    46  44  93 CALM      30.33F
ROCKY MOUNT    CLOUDY    48  43  82 CALM      30.34S
WASHINGTON     CLOUDY    45  40  81 CALM      30.33F
WHITEVILLE     CLOUDY    50  47  90 CALM      30.31F

$$

AMZ130-135-150-152-154-156-158-170-250-252-270-ANZ085-086-088-633-658-670-170500-
MARINE OBSERVATIONS

STATION/POSITION TIME  TEMP    WIND        PRES    WAVE   SWELL
                       AIR SEA DIR/SP/G            HT/PER HT/PER
                 (UTC) (F)     (DEG/KT/KT) (MB)    (FT/S) (FT/S)
CHESAPEAKE LIGHT NOT AVBL
64 E VA BEACH    0350   54 58   10/  8/  8 1026.4    3/10   2/10
DUCK             0400   44 44  350/  5/  7 1026.4
2 E DUCK         0400      44                N/A     2/ 9
OREGON INLET     0400   44 49  340/  3/  5 1026.8
13E OREGON INLT  NOT AVBL
HATTERAS CG      0400   47 53  350/  7/  8 1026.3
DIAMOND BUOY     0350   55 73   10/ 12/ 14 1026.2    3/ 8   2/ 8
CAPE LOOKOUT     0400   49      10/  6/  7 1026.4
BEAUFORT LAB     0400   48 49   40/  4/  6 1025.8
30 SE NEW RVR IN 0408   55 61   70/ 10/ 12 1026.4
30 SE NEW RVR IN 0413      61                N/A     3/ 9   2/11
27 SE WRIGHTSVLE 0408   60 68   60/  8/ 14 1026.3
5 SE WRIGHTSVLE  0308   54      40/ 10/ 14 1026.8
225 S CAPE HAT   0350   70 71  150/ 10/ 12 1026.4    4/ 8   3/ 8
41 SE CHARLESTON 0350   69 70   60/ 10/ 12 1025.2    4/ 6   3/ 6

$$



USA.gov is the U.S. government's official web portal to all federal, state and local government web resources and services.